Location: Donzy-le-Pr�
(47.3659°N, 3.1107°E)
Time: 08:18:07
(UTC+00:00)

Cosmos 192 - Pass Details

Date: 03 March 2021
Orbit: 700 x 714 km, 74.0° (Epoch: 14 April)

Event Time Altitude Azimuth Distance (km) Brightness Sun altitude
Rises 19:14:38 0° 184° (S) 3,072 7.6 -17.5°
Reaches altitude 10° 19:17:00 10° 179° (S) 2,160 6.7 -17.9°
Maximum altitude 19:21:40 48° 106° (ESE) 921 4.5 -18.7°
Drops below altitude 10° 19:26:22 10° 33° (NNE) 2,182 6.7 -19.4°
Sets 19:28:46 0° 27° (NNE) 3,107 7.5 -19.8°
